Location: Cul de Sac
(18.0387°N, 63.0654°W)
Time: 09:11:55
(UTC+00:00)

CZ-2C R/B - Pass Details

Date: 29 October 2020
Orbit: 703 x 909 km, 98.1° (Epoch: 26 November)

Event Time Altitude Azimuth Distance (km) Brightness Sun altitude
Rises 22:30:38 0° 145° (SE) 3,520 6.2 -12.3°
Reaches altitude 10° 22:33:17 10° 136° (SE) 2,585 5.4 -12.9°
Maximum altitude 22:38:23 33° 74° (ENE) 1,483 3.9 -14.1°
Drops below altitude 10° 22:43:26 10° 13° (NNE) 2,559 5.5 -15.3°
Sets 22:46:02 0° 4° (N) 3,479 6.3 -15.9°
